User: anonymous   Login
Location: Home
(44.6062°N, 75.6910°W)
Time: 00:30:34
(UTC-04:00)
Language:

Apple - Orbit

View from above orbital plane
View from above orbital plane
View from above satellite
View from above satellite

Ground track
Ground track

The orbit data is extracted from the following two-line orbital elements,

1 12545U 81057B   19108.62927253 -.00000043  00000-0  00000+0 0  9990
2 12545  12.6089 323.1150 0022456 149.3288 207.9118  1.00024260 96204
Epoch (UTC): 18 April 2019 15:06:09
Eccentricity: 0.0022456
inclination: 12.6089°
perigee height: 35761 km
apogee height: 35950 km
right ascension of ascending node: 323.1150°
argument of perigee: 149.3288°
revolutions per day: 1.00024260
mean anomaly at epoch: 207.9118°
orbit number at epoch: 9620

The dashed part of the orbit path shows where the satellite is in the earth's shadow,  

DLR